Find Starlink 30933

NORAD ID: 58410 Int'l Des: 2023-180 Owner: SPXS Country: US Constellation: starlink operational
LEOCIRCULAR

实时位置

正在加载3D地球...

关于 Starlink 30933

正在加载描述...

即将过境

Passes for default location (London). Set your location on the main map for personalized predictions.

高度历史

Loading altitude history...

两行轨道根数

1 58410U 23180J 26130.11258308 -.00000553 00000-0 -10593-4 0 9999
2 58410 43.0027 279.8649 0000922 267.9393 92.1353 15.27575061138737
Epoch: May 10, 2026 • Age: 9 hours

当前状态

高度 483.3 km
速度 7.63 km/s
星下点 -3.62°S, 63.09°E
发射日期 Nov 22, 2023
运行时间 2.4 years
类型 internet

技术详情

分类 Payload
质量 730.00 kg
干质量 700.00 kg
总质量 730.00 kg
长度 0.30 m
直径 4.10 m
跨度 29.00 m
形状 Box + pan
制造商 SPXS
平台类型 Starlink V2M
阶段状态 In Orbit
所有者/国家 SPXS/US

Most Searched